Regional Weather Roundup
Issued by NWS Upton, NY

Current Version | Previous Version | Text Only | Print | Product List | Glossary Off
Versions: 1 2 3 4 5 6 7 8 9 10 11 12 13 14 15 16 17 18 19 20 21 22 23 24 25 26 27
000 ASUS41 KOKX 261404 RWROKX REGIONAL WEATHER ROUNDUP NATIONAL WEATHER SERVICE NEW YORK NY 1000 AM EDT THU MAY 26 2016 NOTE: "FAIR" INDICATES FEW OR NO CLOUDS BELOW 12,000 FEET WITH NO SIGNIFICANT WEATHER AND/OR OBSTRUCTIONS TO VISIBILITY. NYZ071-072-176-178-NJZ106-104-261500- NEW YORK CITY METRO AREA CITY SKY/WX TMP DP RH WIND PRES REMARKS CENTRAL PARK SUNNY 78 51 38 W3 30.13F LAGUARDIA APRT PTSUNNY 80 59 48 N3 30.09F KENNEDY INTL PTSUNNY 77 54 44 SW6 30.11F NEWARK/LIBERTY PTSUNNY 84 52 33 CALM 30.09F BRNX BOT. GARD N/A 82 54 36 E1 30.11F TETERBORO SUNNY 80 50 34 CALM 30.09F $$ NYZ177-179-078>081-261500- LONG ISLAND NEW YORK CITY SKY/WX TMP DP RH WIND PRES REMARKS FARMINGDALE MOSUNNY 79 55 43 S3 30.10F ISLIP PTSUNNY 80 59 48 S5 30.09F SHIRLEY SUNNY 80 60 50 S6 30.11F RIVERHEAD N/A 82 61 47 W1 30.09F WESTHAMPTON NOT AVBL EAST HAMPTON FAIR 77 63 61 S6 30.10F MONTAUK POINT N/A 74 59 59 VRB3 30.11F $$ NYZ052-065-067-261500- HUDSON VALLEY CITY SKY/WX TMP DP RH WIND PRES REMARKS WHITE PLAINS SUNNY 79 54 41 SE3 30.11S NEWBURGH SUNNY 77 61 57 CALM 30.11F MONTGOMERY MOSUNNY 77 61 57 CALM 30.09F POUGHKEEPSIE SUNNY 76 58 53 CALM 30.09F ALBANY CLOUDY 71 57 61 N3 30.12F $$ NJZ001-105-106-008-010-013-015-019>022-104-261500- NEW JERSEY CITY SKY/WX TMP DP RH WIND PRES REMARKS NEWARK/LIBERTY PTSUNNY 84 52 33 CALM 30.09F TETERBORO SUNNY 80 50 34 CALM 30.09F CALDWELL MOSUNNY 79 55 43 CALM 30.10F MORRISTOWN PTSUNNY N/A N/A N/A CALM 30.10F SOMERVILLE MOSUNNY 80 60 50 CALM 30.09F SUSSEX PTSUNNY 76 58 53 VRB3 30.11F ANDOVER N/A 76 57 51 S3 30.12F TRENTON MOSUNNY 80 57 45 SW3 30.11F MILLVILLE SUNNY 81 59 47 W6 30.13F ATLANTIC CITY MOSUNNY 82 54 37 S9 30.13F WRIGHTSTOWN SUNNY 81 58 45 W9 30.10F TOMS RIVER SUNNY 84 54 34 W13 30.12F BELMAR SUNNY 82 57 42 W7 30.13F $$ PAZ047>061-062-071-261500- EASTERN PENNSYLVANIA CITY SKY/WX TMP DP RH WIND PRES REMARKS PHILADELPHIA PTSUNNY 76 58 53 SW6 30.12F ALLENTOWN CLOUDY 77 57 50 CALM 30.12F SCRANTON CLOUDY 70 57 63 E3 30.12F $$ CTZ002-004>006-009-010-012-RIZ004-006-007-MAZ004-011-015-261500- SOUTHERN NEW ENGLAND IN CT CITY SKY/WX TMP DP RH WIND PRES REMARKS BRADLEY INTL PTSUNNY 79 58 48 CALM 30.08F HARTFORD SUNNY 80 59 48 CALM 30.09F DANBURY SUNNY 80 59 48 N3 30.11F WTRBRY/OXFORD PTSUNNY 79 61 53 CALM 30.13S BRIDGEPORT SUNNY 75 58 55 SW7 30.10F MERIDEN SUNNY 80 58 46 CALM 30.09F NEW HAVEN SUNNY 77 55 46 CALM 30.09F CHESTER FAIR 82 59 44 CALM 30.11F GROTON SUNNY 72 59 63 SW7 30.09F WILLIMANTIC SUNNY 80 59 48 CALM 30.10F IN RI CITY SKY/WX TMP DP RH WIND PRES REMARKS PROVIDENCE MOSUNNY 80 59 48 VRB5 30.09F BLOCK ISLAND SUNNY 74 57 55 SW6 30.11F WESTERLY SUNNY 80 58 46 SW6 30.10F IN MA CITY SKY/WX TMP DP RH WIND PRES REMARKS BOSTON MOSUNNY 74 59 59 SE7 30.09F WORCESTER SUNNY 76 52 43 W10 30.12F WESTFIELD MOSUNNY 77 59 53 E3 30.09F PROVINCETOWN SUNNY 69 56 62 N8 30.11S NANTUCKET SUNNY 73 58 59 SW13 30.10S $$ ANZ330-335-338-340-345-350-353-355-261500- COASTAL MARINE OBSERVATIONS STATION/POSITION TIME SKY/WX TEMP WIND PRES VSBY WAVE AIR SEA DIR/SP/G HT/PER (UTC) (F) (DEG/KT/KT) (MB) (MI) (FT/S) NY HARB ENTRANCE 1250 62 60 210/ 6/ 6 1019.6 2/ 8 20S FIRE ISLAND 1250 60 57 240/ 6/ 8 1019.8 2/ 6 GREAT SOUTH BAY 1315 65 66 230/ 6/ 8 N/A 23 SSW MONTAUK P 1350 59 55 260/ 6/ 8 1019.2 2/ 8 15 E BARNEGAT LI 1322 56 N/A 2/ 8 HUDSON CANYON 1250 58 55 1020.7 2/ 8 KINGS POINT 1300 72 61 1019.4 EXECUTION ROCKS NOT AVBL CENTRAL LI SOUND 1300 61 270/ 4/ 4 N/A 0 EASTERN LI SOUND 1300 60 53 270/ 6/ 6 N/A ROBBINS REEF 1300 74 280/ 3/ 4 1018.9 $$ >>>>>>>>>>>>>>>>>>>>>>>>>>>> KEY <<<<<<<<<<<<<<<<<<<<<<<<<<< > < > SKY/WX - SKY CONDITION/PRESENT WEATHER < > TMP - TEMPERATURE IN FAHRENHEIT < > DP - DEWPOINT IN FAHRENHEIT < > RH - RELATIVE HUMIDITY IN PERCENT < > WIND - DIRECTION AND SPEED IN MPH < > PRES - MEAN SEA LEVEL PRESSURE IN INCHES OF HG < > WCI - WIND CHILL INDEX < > VSB - VISIBILITY IN MILES < > HX - HEAT INDEX < > TC - TEMPERATURE IN CELSIUS < > VRB - VARIABLE WIND DIRECTION < > < >>>>>>>>>>>>>>>>>>>>>>>>>>>> KEY <<<<<<<<<<<<<<<<<<<<<<<<<<<

USA.gov is the U.S. government's official web portal to all federal, state and local government web resources and services.